Location: Unspecified
(52.4292°N, 19.3359°E)
Time: 23:18:46
(UTC+02:00)

A-11 Canister half - Pass Details

Date: 27 May 2024
Orbit: 1515 x 1685 km, 47.2° (Epoch: 19 June)

Event Time Altitude Azimuth Distance (km) Brightness Sun altitude
Rises 09:31:04 0° 282° (WNW) 4,671 11.1 42.4°
Reaches altitude 10° 09:36:47 10° 255° (WSW) 3,674 10.7 43.2°
Maximum altitude 09:39:47 12° 235° (SW) 3,516 10.8 43.7°
Drops below altitude 10° 09:42:48 10° 216° (SW) 3,672 11.0 44.1°
Sets 09:48:33 0° 188° (S) 4,666 11.7 44.9°
